{"data":{"norad_id":68681,"intl_designator":"2026-077V","name":"STARLINK-37307","alt_names":[],"object_type":"PAYLOAD","status":"ACTIVE","operator":null,"country":"US","launch_date":"2026-04-11","launch_site_code":"AFWTR","launch_vehicle":null,"mission":null,"orbit_class":"UNKNOWN","rcs_meters":null,"size_class":null,"mass_kg":null,"dimensions":null,"purposes":["comms"],"wikipedia_slug":null,"has_3d_model":false,"image_url":null,"decayed_at":null,"tle_current":{"epoch":"2026-05-25T02:42:02.026080Z","epoch_age_seconds":75817,"freshness":"FRESH","line1":"1 68681U 26077V   26145.11252345  .00018519  00000+0  57437-3 0  9994","line2":"2 68681  97.2856  16.7433 0001311  87.9084 272.2309 15.33454780  6870","mean_motion":15.3345478,"eccentricity":0.0001311,"inclination_deg":97.2856,"raan_deg":16.7433,"arg_perigee_deg":87.9084,"mean_anomaly_deg":272.2309,"bstar":0.00057437,"rev_number":687,"period_min":93.905605746001,"perigee_km":464.6168735775,"apogee_km":466.41127888969,"semimajor_km":6843.6510762336,"source":"CELESTRAK","updated_at":"2026-05-25T13:38:21.995914Z"}}}